DECAYED

ELECTRON KICK STAGE R/B, 45111 (Decayed)

Orbit data source: Space-Track

ELECTRON KICK STAGE R/B, 45111 was space debris in LEO originally from a launch on Fri, 31 Jan 2020 UTC launched from the Rocket Lab Launch Complex (RLLC). Debris objects in space refer to the collection of defunct objects orbiting the Earth. Examples of debris include non-operational satellites, rocket bodies, and fragments generated from explosions, collisions, or faulty payload assembly.

Not visible in the next 10 days
Identifier
45111, 2020-007B
Orbit
Decayed
Country
Flag of USUS
Related business
Manufacturer
Rocket Lab
Mission
Decayed spacecraft
Bus & Motor
KICK STAGE, CURIE
Mass
40 kg wet, 40 kg dry
Launch date (UTC)
2020-01-31 (7 years ago)
Launch vehicle
Unknown
Launch site
Rocket Lab Launch Complex (RLLC)
Object type
Payload
Rocket body
Debris
Shape & HBR
Trunc Cone, 0.7 m
Radar Cross Section
0.760 m², Medium (>0.1 m² and < 1m²)

Expand to show TLE details & history
Last TLE update: 6 months ago

TLE from 6 months ago
0 ELECTRON KICK STAGE R/B
1 45111U 20007B   26080.51063610  .18034427  44838-5  32898-3 0  9993
2 45111  69.9345 145.7422 0008771 277.9257  82.0982 16.47056642103854
Epoch: 2026-03-21T12:15Z
TLE epoch observation values (Epoch: 2026-03-21T12:15:18.959Z)
Latitude
0.00005°
Longitude
142.88292°
Altitude
148.893 km
Speed
7.818 km/s
True Right ascension
09h 42m 58s
True Declination
0° 00' 00"
Sunlit
Object was in full shadow at epoch
Visualization orbit readout
Latitude
Unknown
Longitude
Unknown
Altitude
Unknown
Speed
Unknown
Apparent Right ascension
Unknown
Apparent Declination
Unknown
Sunlit
N/A
Visualization observer readout
Local Sidereal Time
07:00:19
Azimuth
Unknown
Elevation
Unknown
Doppler factor
Unknown
Orbital elements
Apogee altitude
150.641 km
Perigee altitude
139.198 km
Semi-major axis
6,523.057 km
Eccentricity
0.00088
Inclination
69.9345°
RAAN
145.7422°
Arg. of periapsis
277.9257°
True anomaly
82.19777°
Mean anomaly
82.0982°
Eccentric anomaly
82.14798°
Mean motion
4.11971 °/min
Orbital period
87.38 mins
BSTAR
0.00032898
Loading maneuver chart data...
Computing Atmospheric mass density...
Loading historical data...
Loading historical data...
Loading historical data...
Loading historical data...
Loading historical data...
Loading historical data...
Loading historical data...
Other satellites on launch #7 in the year 2020 (2020-01-31 UTC)

Documentation

Showing up to 5 results
|